Back to catalog

FENGYUN 1C DEB

AlivePO
NORAD 30828·DEBRIS·🇨🇳 China

Launched May 10, 1999 from Taiyuan Satellite Launch Center

Loading…

Next Passes (next 24 hours)

TLE

FreshSource: Space-Track

Epoch: Sep 14, 2026, 14:56 UTC

1 30828U 99025AVN 26257.62290597  .00004862  00000-0  44249-3 0  9994
2 30828  98.3956  21.8963 0191609  14.6249 346.0399 14.82719262 27234

Track FENGYUN 1C DEB in real time with AllMySat

Download on the App Store